Probability
0 0 0 0 0 0 0 0 0 0 0 0 0 0 0 0 0 0 0 0 0 0 0 0 0 0 0 0 0 0 0 0 0 0 0 0 0 0 0 0 0 0 0 0 0 0 0 0 0
0 0 0 0 0 0 0 0 0 0 0 0 0 0 0 0 0 0 0 0 0 0 0 0 1 1 1 1 0 0 0 0 0 0 0 0 0 0 0 0 0 0 0 0 0 0 0 0 0
0 0 0 0 0 0 0 0 0 0 0 0 0 0 0 0 0 0 0 0 0 0 0 0 2 2 2 1 0 0 0 0 0 0 0 0 0 0 0 0 0 0 0 0 0 0 0 0 0
0 0 0 0 0 0 0 0 0 0 0 0 0 0 0 0 0 0 0 0 0 0 0 0 1 1 1 1 0 0 0 0 0 0 0 0 0 0 0 0 0 0 0 0 0 0 0 0 0
0 0 0 0 0 0 0 0 0 0 0 0 0 0 0 0 0 0 0 0 0 0 0 0 0 0 0 1 2 2 2 1 1 1 0 0 0 0 0 0 0 0 0 0 0 0 0 0 0
0 0 0 0 0 0 0 0 0 0 0 0 0 0 0 0 0 0 1 1 1 1 1 0 1 1 1 2 4 5 4 2 1 1 0 0 0 0 0 0 0 0 0 0 0 0 0 0 0
0 0 0 0 0 0 0 0 0 0 0 0 0 0 0 0 0 0 1 2 2 2 1 1 1 1 1 1 3 4 4 3 2 1 1 1 0 0 0 0 0 0 0 0 0 0 0 0 0
0 0 0 0 0 0 0 0 0 0 0 0 0 0 0 0 0 0 0 1 1 1 1 0 1 1 0 0 1 2 3 3 2 2 2 2 1 0 0 0 0 0 0 0 0 0 0 0 0
0 0 0 0 0 0 0 0 0 0 0 0 0 0 0 0 0 0 0 0 0 0 0 0 0 0 0 0 0 0 1 1 2 3 4 3 2 2 1 0 0 0 0 0 0 0 0 0 0
0 0 0 0 0 0 0 0 0 0 0 0 0 0 0 0 0 0 0 0 0 0 0 0 0 0 0 0 0 1 1 1 2 4 5 5 5 4 3 2 1 0 0 0 0 0 0 0 0
0 0 0 0 0 0 0 0 0 0 0 0 0 0 0 0 0 0 0 0 0 0 0 0 0 0 0 0 1 2 2 2 3 5 6 8 9 7 5 5 4 3 2 1 0 0 0 0 0
0 0 0 0 0 0 0 0 0 0 0 0 0 0 0 0 0 0 0 0 0 0 0 0 0 0 0 0 1 2 2 2 3 4 5 7 11 10 8 9 9 8 8 6 2 0 0 0 0
0 0 0 0 0 0 0 0 0 0 0 0 0 0 0 0 0 0 0 0 0 0 0 0 0 0 0 0 0 1 1 1 1 2 3 5 10 13 13 14 14 15 15 12 7 2 0 0 0
0 0 0 0 0 0 0 0 0 0 0 0 0 0 0 0 0 0 0 0 0 0 0 0 0 0 0 0 0 0 0 0 0 0 1 3 7 11 15 17 16 16 16 15 11 5 1 1 0
0 0 0 0 0 0 0 0 0 0 0 0 0 0 0 0 0 0 0 0 0 0 0 0 0 0 0 0 0 0 0 0 1 1 0 2 4 8 13 15 14 14 15 15 14 9 6 4 2
0 0 0 0 0 0 0 0 1 0 0 0 0 0 0 0 0 0 0 0 0 0 0 0 0 0 0 0 0 0 0 0 1 1 1 2 3 5 10 15 15 15 17 17 16 14 12 10 7
0 0 0 0 0 0 0 0 0 0 0 0 0 0 0 0 0 0 0 0 0 0 0 0 0 0 0 0 0 0 0 0 1 1 2 3 3 4 9 16 19 20 22 22 19 17 17 16 14
0 0 0 0 0 0 0 0 0 0 0 0 0 0 0 0 0 0 0 0 0 0 0 0 0 0 0 0 0 0 0 0 0 0 1 2 3 4 8 14 19 23 26 25 21 20 20 20 19
0 0 0 0 0 0 0 0 0 0 0 0 0 0 0 0 0 0 0 0 0 0 0 0 0 0 0 0 0 0 0 0 0 0 0 1 1 3 6 10 15 23 27 23 19 22 24 23 22
0 0 0 0 0 0 0 0 0 0 0 0 0 0 0 0 0 0 0 0 0 0 0 0 0 0 0 0 0 0 0 0 0 0 0 0 1 2 4 6 11 20 24 19 16 21 26 25 23
0 0 0 0 0 0 0 0 0 0 0 0 0 0 0 0 0 0 0 0 0 0 0 0 0 0 0 0 0 0 0 0 0 0 0 0 0 1 3 5 8 15 19 18 15 17 21 24 23
0 0 0 0 0 0 0 0 0 0 0 0 0 0 0 0 0 0 0 0 0 0 0 0 0 0 0 0 0 0 0 0 0 0 0 0 0 0 1 3 6 9 13 15 14 13 17 21 22
0 0 0 0 0 0 0 0 0 0 0 0 0 0 0 0 0 0 0 0 0 0 0 0 0 0 0 0 0 0 0 0 0 0 0 0 0 0 0 1 3 5 7 10 11 12 17 22 24
0 0 0 0 0 0 0 0 0 0 0 0 0 0 0 0 0 0 0 0 0 0 0 0 0 0 0 0 0 0 0 0 0 0 0 0 0 0 0 0 1 1 3 4 6 8 14 20 22
0 0 0 0 0 0 0 0 0 0 0 0 0 0 0 0 0 0 0 0 0 0 0 0 0 0 0 0 0 0 0 0 0 0 0 0 0 0 0 0 0 0 1 1 2 4 9 15 19
0 0 0 0 0 0 0 0 0 0 0 0 0 0 0 0 0 0 0 0 0 0 0 0 0 0 0 0 0 0 0 0 0 0 0 0 0 0 0 0 0 0 0 0 0 2 6 11 15
0 0 0 0 0 0 0 0 0 0 0 0 0 0 0 0 0 0 0 0 0 0 0 0 0 0 0 0 0 0 0 0 0 0 0 0 0 0 0 0 0 0 0 0 0 1 3 6 8
0 0 0 0 0 0 0 0 0 0 0 0 0 0 0 0 0 0 0 0 0 0 0 0 0 0 0 0 0 0 0 0 0 0 0 0 0 0 0 0 0 0 0 0 0 0 1 1 2
0 0 0 0 0 0 0 0 0 0 0 0 0 0 0 0 0 0 0 0 0 0 0 0 0 0 0 0 0 0 0 0 0 0 0 0 0 0 0 0 0 0 0 0 0 0 0 0 1
0 0 0 0 0 0 0 0 0 0 0 0 0 0 0 0 0 0 0 0 0 0 0 0 0 0 0 0 0 0 0 0 0 0 0 0 0 0 0 0 0 0 0 0 0 0 0 0 0
Wind_Speed
9 7 4 3 5 2 7 6 5 5 5 6 6 4 5 8 6 6 5 4 2 4 5 7 6 6 6 6 6 6 6 6 6 5 5 5 5 4 4 3 3 3 2 2 1 1 0 0 1
8 6 4 4 2 4 6 5 7 8 5 3 4 5 7 8 8 5 4 4 1 4 4 4 5 4 5 5 6 6 6 6 6 6 6 5 5 5 5 4 4 4 3 3 2 2 1 0 1
7 5 4 2 2 4 5 5 6 6 6 4 4 6 6 7 7 6 6 3 2 3 2 4 1 1 3 4 5 5 6 6 6 6 6 6 6 6 6 5 5 5 4 4 3 3 2 1 1
4 4 3 1 6 6 5 5 4 2 5 6 4 7 7 7 7 6 5 4 4 4 3 4 3 2 2 3 5 6 6 7 7 7 7 7 7 7 7 7 6 6 6 5 4 4 3 3 2
4 4 2 3 5 5 5 5 4 4 5 6 5 7 7 7 7 7 7 6 5 5 5 5 7 6 5 4 4 5 6 7 7 8 8 8 8 8 8 8 7 7 7 6 5 5 4 4 3
3 3 2 3 5 5 4 4 3 6 6 5 5 6 6 6 8 8 8 8 7 7 6 6 6 7 7 7 5 5 6 6 7 8 9 9 9 9 9 9 9 8 8 7 6 5 5 5 4
3 2 0 3 4 4 4 3 5 5 6 6 4 4 6 8 8 7 7 8 8 7 7 6 7 7 7 7 8 8 7 7 7 8 9 10 10 11 11 10 10 9 9 8 7 7 6 5 5
3 2 2 2 3 4 4 4 4 5 6 5 4 4 5 6 5 5 7 7 7 7 7 7 7 7 7 6 6 8 9 8 8 8 9 9 10 11 12 12 11 10 10 10 9 8 7 7 6
4 3 1 1 1 5 5 4 4 4 7 7 7 8 6 4 4 5 6 6 7 7 6 6 6 6 6 6 5 6 6 6 7 7 8 8 8 9 9 12 9 10 11 11 10 9 8 8 8
3 2 3 3 2 5 6 4 5 5 7 8 8 8 6 4 5 6 7 8 8 8 8 6 7 6 6 5 4 4 4 4 4 5 6 6 6 6 9 6 9 11 12 12 11 10 10 10 8
1 2 4 4 4 6 6 5 3 4 4 5 6 6 5 5 5 7 7 8 8 8 8 8 8 7 6 4 4 3 3 3 4 5 5 5 6 5 6 4 6 9 11 9 9 10 9 8 6
3 4 4 6 5 4 5 6 5 2 5 5 6 5 4 5 6 6 7 8 8 8 9 9 9 8 8 7 5 5 4 4 4 5 6 5 4 5 5 4 5 5 5 6 6 5 7 8 8
4 5 5 5 6 5 6 5 5 6 6 6 6 5 4 4 5 5 6 7 8 9 9 10 10 9 9 7 6 6 5 5 6 5 6 6 5 6 6 4 4 6 5 6 6 7 7 7 8
5 8 7 6 6 5 6 5 5 6 7 6 5 4 3 3 4 5 7 8 9 9 10 10 10 9 9 8 7 7 7 6 7 6 7 8 6 6 5 5 5 5 5 5 6 7 6 6 6
8 7 6 5 4 4 5 5 4 7 7 6 4 3 2 2 3 5 7 8 9 10 10 10 10 10 10 9 9 7 7 7 7 6 8 8 7 7 6 6 6 5 5 6 6 7 5 6 6
5 5 5 6 5 5 6 5 6 7 7 6 4 2 1 1 3 5 6 8 9 10 10 10 9 10 10 9 9 7 7 7 7 6 6 8 8 8 7 6 6 6 5 5 5 5 5 6 6
6 6 4 5 7 5 7 5 6 7 7 6 5 3 2 1 3 5 7 8 9 10 10 10 10 10 10 10 8 7 7 6 6 6 6 7 8 8 7 6 6 6 5 5 6 6 5 5 5
4 5 4 3 5 7 8 6 4 7 7 7 5 4 3 3 4 5 6 7 8 9 9 9 9 10 10 8 7 6 7 6 6 5 5 7 7 7 7 6 7 6 5 5 5 6 5 5 4
4 5 5 1 2 6 9 8 6 7 8 8 7 5 4 3 3 4 6 7 8 9 9 9 10 10 8 7 7 7 7 7 6 5 7 7 7 7 7 6 6 6 6 6 7 6 6 5 4
4 5 3 2 1 5 6 9 6 7 9 7 7 6 4 4 4 4 6 7 9 9 9 10 10 10 9 7 7 6 7 6 6 5 6 7 7 6 6 7 5 6 5 7 7 7 5 4 5
3 4 3 1 2 4 6 7 6 6 7 7 7 6 5 4 6 6 7 8 8 9 9 8 10 10 9 9 7 7 6 5 5 5 5 6 6 6 6 7 6 5 6 6 7 7 8 6 6
2 1 1 3 6 2 3 6 2 3 6 8 8 6 5 3 4 5 7 8 8 8 8 9 9 10 9 9 8 9 7 7 8 6 6 7 6 5 5 6 6 6 5 6 6 7 6 7 6
3 2 1 4 6 6 4 7 1 2 3 3 5 5 4 3 3 5 6 7 7 8 8 8 9 9 9 9 8 8 7 7 6 7 7 7 6 5 5 5 5 5 5 6 6 6 7 6 7
5 5 4 4 6 5 0 5 2 1 2 1 1 3 3 2 3 4 5 5 6 7 7 7 8 9 9 9 8 8 9 9 8 8 7 6 5 4 5 4 5 5 5 5 6 6 7 7 7
5 5 4 5 4 0 2 5 3 3 2 2 2 1 2 2 3 4 5 6 6 7 7 8 8 8 9 9 9 9 9 9 8 8 7 7 5 4 5 5 5 4 5 5 5 6 6 7 7
1 5 5 5 3 1 3 5 2 2 1 3 3 3 3 3 3 4 4 5 6 7 7 7 8 8 8 8 9 8 8 6 6 7 7 6 5 5 6 5 4 5 5 5 5 5 6 6 7
3 1 4 5 3 4 2 2 1 3 4 5 5 5 4 3 3 3 4 5 5 6 6 7 7 8 8 8 9 8 9 8 8 8 7 6 6 6 6 5 5 4 4 4 4 4 5 5 6
4 2 4 5 4 3 2 3 1 1 1 3 5 5 5 4 4 3 3 4 5 5 5 6 6 7 7 7 7 7 8 8 8 8 8 8 8 7 6 6 5 4 3 3 4 4 4 5 5
5 4 3 3 4 5 3 2 3 2 3 4 3 3 4 4 4 3 3 4 4 4 4 5 5 6 6 7 7 8 8 8 8 7 8 8 7 7 6 6 5 5 4 3 3 4 4 5 5
3 3 5 4 2 3 5 1 4 2 4 5 5 4 4 4 4 4 4 4 4 4 4 4 5 5 5 6 7 7 7 8 8 8 8 8 8 7 6 6 5 5 4 3 3 3 3 3 5
Wind_Direction
174 171 182 220 230 131 71 54 42 57 56 53 48 50 58 43 17 44 49 52 59 145 151 160 181 189 192 190 193 200 201 199 196 196 195 193 192 193 199 205 213 220 227 231 238 249 185 41 34
166 169 210 237 240 101 78 57 57 51 47 48 59 56 66 62 41 51 49 29 66 131 151 149 149 195 206 207 209 214 215 213 208 209 208 206 208 211 215 221 225 230 233 236 240 249 257 281 8
167 212 248 244 57 61 77 60 53 64 46 37 71 54 48 39 19 25 22 31 100 101 107 92 93 226 238 236 232 232 232 232 227 225 221 219 220 224 226 229 231 235 238 241 244 253 263 266 300
191 220 230 161 92 65 49 34 13 60 71 41 78 83 75 38 7 20 34 45 75 72 58 68 34 360 317 281 262 253 249 245 240 237 233 229 229 231 231 230 234 238 240 241 241 246 256 261 268
228 246 204 119 98 92 66 33 28 44 66 47 65 91 76 36 34 38 43 47 53 50 40 42 36 11 354 329 304 284 274 263 255 250 246 242 241 239 236 234 237 239 241 240 238 244 249 251 253
234 246 214 124 115 111 89 49 48 58 74 61 61 91 77 43 37 37 40 44 43 37 25 25 35 14 1 347 329 308 293 285 271 264 256 252 251 249 243 240 241 240 242 242 240 243 249 247 248
271 263 47 120 133 126 95 63 43 57 69 47 16 89 98 49 41 44 48 48 42 35 28 20 11 9 7 356 346 330 312 300 290 281 269 257 252 253 250 246 245 243 242 243 240 238 242 245 248
286 248 151 156 156 116 108 100 65 36 68 48 19 65 73 47 48 61 59 53 47 38 27 19 14 6 353 345 353 339 328 319 305 287 279 269 257 251 248 245 236 240 243 241 239 236 236 237 240
255 248 193 130 143 114 134 129 95 78 89 78 64 64 73 70 61 58 54 49 40 32 22 13 7 5 352 335 347 321 316 325 313 292 280 271 257 251 240 241 236 238 244 244 238 234 233 233 223
250 279 65 59 59 121 135 125 126 132 108 100 96 92 94 83 59 46 36 28 24 17 10 4 353 349 343 336 332 309 306 299 291 287 279 273 266 259 257 244 236 242 243 243 236 233 231 233 221
358 54 99 104 103 129 137 129 137 156 106 97 112 109 95 77 57 44 34 23 16 8 5 358 346 341 337 325 314 305 299 290 273 270 271 268 266 257 250 247 232 234 235 237 218 218 226 227 230
108 79 97 119 125 141 138 134 126 86 90 104 104 105 96 68 51 36 24 15 6 2 355 352 345 338 336 331 321 302 294 291 286 277 273 266 261 259 255 243 242 244 239 238 239 234 226 231 229
127 118 101 110 120 122 126 129 122 118 119 119 119 118 91 60 43 33 15 4 359 356 349 348 340 337 334 331 314 306 302 300 293 286 278 269 265 263 256 253 247 247 246 237 236 240 235 233 236
113 121 123 130 132 141 146 136 150 140 149 145 146 133 99 59 24 9 5 358 354 351 347 345 339 336 330 323 316 313 308 297 291 285 280 274 263 258 256 253 252 248 246 249 240 237 234 232 232
136 135 144 160 161 155 180 181 174 147 167 168 168 145 103 42 9 1 1 352 351 345 343 345 336 336 332 326 320 311 303 300 296 291 287 281 273 265 257 252 251 247 238 240 244 243 237 232 227
168 189 198 170 181 172 234 249 143 164 185 189 189 171 194 1 350 4 357 349 349 343 343 343 338 335 334 329 318 312 308 305 297 293 288 285 280 271 265 256 250 244 237 232 232 237 231 227 227
202 239 245 173 193 196 236 268 144 179 201 207 207 215 245 296 346 2 354 349 347 342 340 342 342 336 335 329 318 313 308 303 298 296 293 291 286 279 269 262 259 250 238 233 233 225 221 225 223
247 263 265 229 178 219 239 252 178 191 215 224 224 236 255 303 347 355 349 348 342 342 342 344 340 338 337 331 326 323 316 312 307 301 297 299 290 285 277 265 256 252 242 235 232 227 218 223 217
292 277 285 56 140 236 251 259 231 204 217 227 231 244 269 307 332 348 344 346 342 346 346 347 344 344 342 338 332 329 327 321 316 311 309 299 291 286 278 273 263 250 244 239 232 230 221 217 208
244 264 270 147 161 257 272 269 247 220 228 238 249 257 272 301 316 344 340 346 347 348 348 347 348 345 344 340 328 318 318 313 318 316 314 310 300 293 282 272 267 253 248 241 233 225 218 215 203
235 285 299 271 180 216 278 260 214 206 223 232 243 257 278 299 318 339 344 345 346 350 348 345 345 342 344 340 333 329 327 315 324 326 322 318 310 299 289 279 270 262 256 246 236 226 220 215 209
224 48 256 231 252 266 285 300 147 186 223 231 236 241 260 285 310 331 338 343 347 349 345 343 344 343 344 340 340 339 332 329 329 323 320 318 314 307 294 282 271 261 256 253 245 234 230 222 213
72 95 211 252 268 272 232 276 111 153 250 236 231 235 247 273 310 325 336 340 343 347 346 341 341 343 346 343 342 331 335 330 327 325 326 324 324 315 303 289 274 263 256 252 250 246 237 230 224
139 167 168 214 247 254 332 278 304 91 357 21 192 218 230 259 302 318 331 332 340 345 342 341 342 346 345 341 341 343 338 334 333 333 331 327 323 318 321 307 286 270 261 254 249 246 239 234 228
215 254 245 221 220 241 91 268 296 39 323 280 280 247 231 257 297 319 329 332 339 340 342 340 343 344 346 344 347 348 343 335 333 334 331 326 323 323 325 316 301 288 274 264 255 249 243 234 228
221 286 302 309 319 344 194 258 15 65 273 247 246 244 239 253 291 312 323 325 328 333 338 341 342 342 345 344 346 345 343 336 334 333 328 324 319 315 313 310 303 294 282 269 256 249 241 233 230
198 226 338 294 287 276 224 255 235 164 222 226 233 234 241 254 274 295 314 320 325 329 336 338 336 340 344 343 343 345 346 343 338 334 332 329 324 319 321 315 306 295 284 272 260 250 243 237 229
348 130 218 262 291 286 267 256 312 172 271 235 238 241 242 241 257 278 301 314 321 327 328 334 336 337 341 341 343 344 343 344 342 338 343 340 334 332 326 322 319 309 295 274 262 259 244 237 231
173 192 230 256 291 298 313 71 69 322 321 300 279 251 238 236 249 274 293 309 315 313 317 328 336 339 342 341 343 344 349 348 349 351 348 342 339 339 334 330 326 324 315 289 263 257 245 239 234
262 247 233 267 239 267 289 336 112 263 285 282 278 254 227 229 240 258 281 294 302 311 319 329 338 342 342 338 339 345 346 350 353 357 353 348 348 345 342 339 335 334 326 308 279 265 250 233 235